Regional Weather Roundup
Issued by NWS

Home | Current Version | Previous Version | Text Only | Print | Product List | Glossary On
Versions: 1 2 3 4 5 6 7 8 9 10 11 12 13 14 15 16 17 18 19 20 21 22 23 24 25 26 27
000
ASUS44 KLIX 251913
RWRLA
LOUISIANA WEATHER ROUNDUP
NATIONAL WEATHER SERVICE NEW ORLEANS LA
200 PM CDT SAT MAR 25 2017

NOTE: "FAIR" INDICATES FEW OR NO CLOUDS BELOW 12,000 FEET WITH NO
      SIGNIFICANT WEATHER AND/OR OBSTRUCTIONS TO VISIBILITY.
      SKY/WX - SKY CONDITION AND SIGNIFICANT WEATHER.
      TMP - AIR TEMPERATURE.    DP   - DEWPOINT TEMPERATURE.
      RH  - RELATIVE HUMIDITY.  PRES - PRESSURE.
      HX  - HEAT INDEX.         WCI  - WIND CHILL INDEX.

*  THESE STATIONS ARE NOT NWS OR FAA STATIONS AND ARE NOT UNDER
   NWS QUALITY CONTROL.

LAZ040-048-061>063-065-066-069-252000-
SOUTHEAST LOUISIANA

CITY           SKY/WX    TMP DP  RH WIND       PRES   REMARKS
N.O. INTL ARPT TSTM      62  60  93 NW15G28   30.10R FOG
N.O. LAKEFRONT TSTM      66  63  90 W28G36    30.08R FOG
N.O. DOWNTOWN* TSTM      66  60  81 W9G35     30.10R
RESERVE*       TSTM      63  61  93 N6        30.07F
SLIDELL        TSTM      65  62  90 NW8G22    30.05R FOG
BATON ROUGE    CLOUDY    64  60  87 S9        30.02F
BOOTHVILLE     MOSUNNY   76  68  76 S16G24    30.07F
BELLE CHASSE   TSTM      77  70  79 SW16G26   30.04S
BOGALUSA*      NOT AVBL
GALLIANO*      CLOUDY    78  68  72 S16G24    30.04F
NEW ROADS*     FAIR      69  59  70 S14       30.02F
GONZALES*      LGT RAIN  62  60  93 CALM      30.05F
HAMMOND*       TSTM      61  57  88 W9        30.09F
HOUMA*           N/A    N/A N/A N/A MISG        N/A  VSB 1
PORT FOURCHON* PTCLDY    77  70  78 S15G21    30.04F

$$

LAZ041-044-053-054-252000-
SOUTHWEST LOUISIANA

CITY           SKY/WX    TMP DP  RH WIND       PRES   REMARKS
LAKE CHARLES   SUNNY     74  63  68 SW10      29.99F
LAFAYETTE      LGT RAIN  71  57  61 SW16G24   30.02F
PATTERSON        N/A    N/A N/A N/A MISG        N/A
SALT POINT       N/A     66  61  84 W8G17     30.07F
NEW IBERIA     LGT RAIN  68  56  65 SW13      30.03F
CHENAULT AIRPK MOSUNNY   73  61  64 SW10      30.00F

$$

LAZ027-028-252000-
CENTRAL LOUISIANA

CITY           SKY/WX    TMP DP  RH WIND       PRES   REMARKS
FORT POLK      PTSUNNY   73  60  64 SW12G18   29.97F
ALEXANDRIA INT PTSUNNY   74  59  59 SW8       29.95F
ALEXANDRIA     PTSUNNY   75  57  53 SW12      29.97F

$$

LAZ001-002-252000-
NORTHWEST LOUISIANA

CITY           SKY/WX    TMP DP  RH WIND       PRES   REMARKS
SHREVEPORT     SUNNY     75  49  39 W15G22    29.95F
BARKSDALE AFB  SUNNY     72  51  46 W9        29.95F
DTN SHREVEPORT SUNNY     72  51  47 SW10      29.95F

$$

LAZ014-016-252000-
NORTHEAST LOUISIANA

CITY           SKY/WX    TMP DP  RH WIND       PRES   REMARKS
MONROE         MOSUNNY   74  57  55 SW14      29.94F
TALLULAH       LGT RAIN  71  66  84 VRB6      29.95F

$$





USA.gov is the U.S. government's official web portal to all federal, state and local government web resources and services.